1318723229930,20.7310
1318723289930,20.7472
1318723349930,20.6962
1318723409930,20.5870
1318723469930,20.6272
1318723529930,20.5945
1318723589930,20.5907
1318723649930,20.6869
1318723709930,20.6207
1318723769930,20.6159
1318723829930,20.5271
1318723889930,20.6246
1318723949930,20.5912
1318724009930,20.5759
1318724069930,20.5936
1318724129930,20.5592
1318724189930,20.5655
1318724249930,20.6074
1318724309930,20.5647
1318724369930,20.5614
1318724429930,20.5249
1318724489930,20.5385
1318724549930,20.5145
1318724609930,20.5283
1318724669930,20.5152
1318724729930,20.5273
1318724789930,20.5120
1318724849930,20.5436
1318724909930,20.5428
1318724969930,20.4812
1318725029930,20.4949
1318725089930,20.5323
1318725149930,20.5413
1318725209930,20.5635
1318725269930,20.5246
1318725329930,20.5342
1318725389930,20.5420
1318725449930,20.5357
1318725509930,20.5480
1318725569930,20.5326
1318725629930,20.5605
1318725689930,20.5528
1318725749930,20.5524
1318725809930,20.5388
1318725869930,20.5655
1318725929930,20.6043
1318725989930,20.6193
1318726049930,20.6409
1318726109930,20.5955
1318726169930,20.5772
1318726229930,20.6339
1318726289930,20.6592
1318726349930,20.5858
1318726409930,20.6454
1318726469930,20.6179
1318726529930,20.6283
1318726589930,20.5848
1318726649930,20.5877
1318726709930,20.5692
1318726769930,20.5764
1318726829941,20.6036
1318726889941,20.5984
1318726949941,20.5798
1318727009941,20.5640
1318727069941,20.5808
1318727129941,20.5572
1318727189941,20.5674
1318727249941,20.6373
1318727309941,20.6267
1318727369941,20.6556
1318727429941,20.6963
1318727489941,20.6703
1318727549941,20.7015
1318727609940,20.6711
1318727669941,20.6362
1318727729941,20.6201
1318727789941,20.7135
1318727849941,20.6411
1318727909941,20.7177
1318727969941,20.6912
1318728029941,20.7969
1318728089941,20.7530
1318728149941,20.8454
1318728209941,20.8691
1318728269941,20.8374
1318728329941,20.7725
1318728389941,20.7014
1318728449941,20.7083
1318728509941,20.7606
1318728569941,20.7977
1318728629941,20.7075
1318728689941,20.7538
1318728749941,20.8131
1318728809941,20.8612
1318728869941,21.0015
1318728929940,21.1300
1318728989941,21.1405
1318729049941,21.2446
1318729109941,21.2469
1318729169941,21.2120
1318729229941,21.1906
1318729289941,21.1421
1318729349941,21.1650
1318729409941,21.1410
1318729469941,21.0760
1318729529941,21.0278
1318729589941,21.0116
1318729649941,21.0019
1318729709941,20.9628
1318729769941,20.9394
1318729829941,20.9420
1318729889941,20.8906
1318729949941,20.8983
1318730009941,20.8790
1318730069941,20.8626
1318730129941,20.8157
1318730189941,20.8076
1318730249941,20.7600
1318730309940,20.7863
1318730369941,20.8595
1318730429951,20.8410
1318730489951,20.8026
1318730549951,20.8397
1318730609951,20.8235
1318730669951,20.8794
1318730729951,20.8381
1318730789951,20.7999
1318730849951,20.8336
1318730909951,20.8231
1318730969951,20.8282
1318731029951,20.8451
1318731089951,20.7908
1318731149951,20.7018
1318731209951,20.7807
1318731269951,20.8306
1318731329951,20.8174
1318731389951,20.8144
1318731449951,20.7710
1318731509951,20.7469
1318731569951,20.7157
1318731629951,20.6909
1318731689951,20.7766
1318731749951,20.7165
1318731809951,20.7061
1318731869951,20.7521
1318731929951,20.7481
1318731989951,20.7988
1318732049951,20.7412
1318732109951,20.7383
1318732169951,20.7692
1318732229951,20.6820
1318732289951,20.7020
1318732349951,20.7498
1318732409951,20.6891
1318732469951,20.6659
1318732529951,20.6913
1318732589951,20.7078
1318732649951,20.7090
1318732709951,20.7327
1318732769951,20.7226
1318732829951,20.6988
1318732889951,20.7594
1318732949951,20.6790
1318733009951,20.7179
1318733069951,20.7480
1318733129951,20.7900
1318733189951,20.8453
1318733249951,20.7495
1318733309951,20.7912
1318733369951,20.7225
1318733429951,20.6676
1318733489951,20.6814
1318733549951,20.6848
1318733609951,20.6987
1318733669951,20.6941
1318733729951,20.7203
1318733789951,20.6840
1318733849951,20.6899
1318733909951,20.6811
1318733969951,20.7043
1318734029961,20.7181
1318734089961,20.6834
1318734149961,20.7139
1318734209961,20.7753
1318734269961,20.8349
1318734329961,20.7829
1318734389961,20.8229
1318734449961,20.8018
1318734509961,20.7614
1318734569961,20.8102
1318734629961,20.7888
1318734689961,20.7757
1318734749961,20.7649
1318734809961,20.7383
1318734869961,20.7807
1318734929961,20.7764
1318734989961,20.8025
1318735049961,20.7819
1318735109961,20.7846
1318735169961,20.7740
1318735229961,20.8251
1318735289961,20.8416
1318735349961,20.8347
1318735409961,20.8412
1318735469961,20.9360
1318735529961,20.9671
1318735589961,21.0203
1318735649961,21.0317
1318735709961,21.0412
1318735769961,21.0847
1318735829961,21.2916
1318735889961,21.3473
1318735949961,21.3736
1318736009961,21.2344
1318736069961,21.0617
1318736129961,21.0564
1318736189961,21.0040
1318736249961,20.9600
1318736309961,20.9226
1318736369961,20.9134
1318736429961,20.9434
1318736489961,20.9130
1318736549961,20.9606
1318736609961,20.9175
1318736669961,20.9453
1318736729961,20.8560
1318736789961,20.9181
1318736849961,20.9423
1318736909961,20.9158
1318736969961,20.9325
1318737029961,20.8693
1318737089961,20.8684
1318737149961,20.8735
1318737209961,20.8767
1318737269961,20.9310
1318737329961,20.9066
1318737389961,20.8853
1318737449961,20.8901
1318737509961,20.8650
1318737569961,20.8765
1318737629972,20.8789
1318737689972,20.9114
1318737749972,20.9079
1318737809972,20.8300
1318737869972,20.8247
1318737929972,20.8270
1318737989972,20.8251
1318738049972,20.8396
1318738109972,20.8641
1318738169972,20.8040
1318738229972,20.8013
1318738289972,20.8419
1318738349972,20.7621
1318738409972,20.7838
1318738469972,20.7771
1318738529972,20.8196
1318738589972,20.7596
1318738649972,20.8209
1318738709972,20.8027
1318738769972,20.8474
1318738829972,20.8151
1318738889972,20.8038
1318738949972,20.7841
1318739009972,20.7646
1318739069972,20.7961
1318739129972,20.8099
1318739189972,20.7670
1318739249972,20.7869
1318739309972,20.7971
1318739369972,20.9298
1318739429972,20.9493
1318739489972,20.9188
1318739549972,20.8824
1318739609972,20.8496
1318739669972,20.8099
1318739729972,20.8433
1318739789972,20.8204
1318739849972,20.8857
1318739909972,20.8683
1318739969972,20.9032
1318740029972,20.8903
1318740089972,20.8571
1318740149972,20.8410
1318740209972,20.9061
1318740269972,20.9330
1318740329972,20.9494
1318740389972,20.9429
1318740449972,20.8968
1318740509972,20.9262
1318740569972,20.9103
1318740629972,20.8344
1318740689972,20.9416
1318740749972,20.9698
1318740809972,20.9476
1318740869972,20.9297
1318740929972,20.9231
1318740989972,20.8866
1318741049972,20.8584
1318741109972,20.8707
1318741169972,20.8550
1318741229982,20.8552
1318741289982,20.7951
1318741349982,20.8316
1318741409982,20.8313
1318741469982,20.8446
1318741529982,20.8286
1318741589982,20.8276
1318741649982,20.8076
1318741709982,20.8769
1318741769982,20.8260
1318741829982,20.7899
1318741889982,20.8504
1318741949982,20.8379
1318742009982,20.7628
1318742069982,20.7313
1318742129982,20.8526
1318742189982,20.8929
1318742249982,20.8689
1318742309982,20.8219
1318742369982,20.8800
1318742429982,20.8310
1318742489982,20.8850
1318742549982,20.8392
1318742609982,20.8310
1318742669982,20.8753
1318742729982,20.8488
1318742789982,20.8082
1318742849982,20.8501
1318742909982,20.8266
1318742969982,20.8021
1318743029982,20.8634
1318743089982,20.7917
1318743149982,20.8334
1318743209982,20.8322
1318743269982,20.8339
1318743329982,20.8036
1318743389982,20.8125
1318743449982,20.7997
1318743509982,20.8450
1318743569982,20.8514
1318743629982,20.8751
1318743689982,20.8526
1318743749982,20.8302
1318743809982,20.8324
1318743869982,20.7736
1318743929982,20.8304
1318743989982,20.7812
1318744049982,20.8010
1318744109982,20.7835
1318744169982,20.7798
1318744229982,20.7828
1318744289982,20.8448
1318744349982,20.7819
1318744409982,20.8265
1318744469982,20.8120
1318744529982,20.8509
1318744589982,20.8840
1318744649982,20.8346
1318744709982,20.8402
1318744769982,20.8392
1318744829993,20.8677
1318744889993,20.8473
1318744949993,20.8195
1318745009993,20.8807
1318745069993,20.8792
1318745129993,20.8250
1318745189993,20.8968
1318745249993,20.9073
1318745309993,20.8629
1318745369993,20.8852
1318745429993,20.9353
1318745489993,20.8957
1318745549993,20.8945
1318745609993,20.8865
1318745669993,20.9269
1318745729993,20.9656
1318745789993,20.9813
1318745849993,20.9187
1318745909993,20.9312
1318745969993,20.8759
1318746029993,20.9441
1318746089993,20.8639
1318746149993,20.8627
1318746209993,20.8564
1318746269993,20.9359
1318746329993,20.9167
1318746389993,20.9344
1318746449993,20.9814
1318746509993,20.9361
1318746569993,20.8942
1318746629993,20.9446
1318746689993,20.9438
1318746749993,20.9151
1318746809993,20.9478
1318746869993,20.9660
1318746929993,20.9391
1318746989993,20.8890
1318747049993,20.8687
1318747109993,20.9402
1318747169993,20.9430
1318747229993,21.0079
1318747289993,20.9899
1318747349993,20.9873
1318747409993,20.9548
1318747469993,21.0508
1318747529993,21.0112
1318747589993,21.0775
1318747649993,21.1940
1318747709993,21.2196
1318747769993,21.2214
1318747829993,21.2151
1318747889993,21.2153
1318747949993,21.1538
1318748009993,21.2251
1318748069993,21.2108
1318748129993,21.2040
1318748189993,21.1866
1318748249993,21.2552
1318748309993,21.2667
1318748369993,21.3497
1318748430003,21.3136
1318748490003,21.3013
1318748550003,21.3242
1318748610003,21.2936
1318748670003,21.2952
1318748730003,21.2448
1318748790003,21.3319
1318748850003,21.3056
1318748910003,21.2315
1318748970003,21.2543
1318749030003,21.2589
1318749090003,21.2044
1318749150003,21.1587
1318749210003,21.2550
1318749270003,21.1930
1318749330003,21.2503
1318749390003,21.1841
1318749450003,21.1854
1318749510003,21.2228
1318749570003,21.2175
1318749630003,21.2259
1318749690003,21.2145
1318749750003,21.2460
1318749810003,21.3363
1318749870003,21.2955
1318749930003,21.2487
1318749990003,21.2632
1318750050003,21.3034
1318750110003,21.2981
1318750170003,21.3212
1318750230003,21.2708
1318750290003,21.3171
1318750350003,21.3527
1318750410003,21.3206
1318750470003,21.3350
1318750530003,21.3251
1318750590003,21.3220
1318750650003,21.2975
1318750710003,21.3129
1318750770003,21.3064
1318750830003,21.3698
1318750890003,21.2911
1318750950003,21.2614
1318751010003,21.2084
1318751070003,21.1602
1318751130003,21.2003
1318751190003,21.1996
1318751250003,21.2305
1318751310003,21.2177
1318751370003,21.1349
1318751430003,21.1969
1318751490003,21.1945
1318751550003,21.0822
1318751610003,21.1000
1318751670003,21.0901
1318751730003,21.1264
1318751790003,21.0640
1318751850003,21.0782
1318751910003,21.1414
1318751970003,21.1224
1318752030014,21.1099
1318752090014,21.1204
1318752150014,21.1592
1318752210014,21.1266
1318752270014,21.1020
1318752330014,21.1039
1318752390014,21.1184
1318752450014,21.1488
1318752510014,21.1632
1318752570014,21.0505
1318752630014,21.0218
1318752690014,21.1139
1318752750014,21.0618
1318752810014,21.0467
1318752870014,21.0743
1318752930014,21.0452
1318752990014,21.1264
1318753050014,21.0499
1318753110014,21.0635
1318753170014,21.0631
1318753230014,21.0500
1318753290014,21.0368
1318753350014,21.0676
1318753410014,21.0344
1318753470014,21.0510
1318753530014,21.0305
1318753590014,21.0847
1318753650014,21.0513
1318753710014,21.0329
1318753770014,20.9936
1318753830014,21.0934
1318753890014,21.0387
1318753950014,21.0561
1318754010014,21.0159
1318754070014,21.0379
1318754130014,21.0734
1318754190014,21.0772
1318754250014,21.0275
1318754310014,21.0357
1318754370014,21.0785
1318754430014,21.0559
1318754490014,21.0531
1318754550014,21.0042
1318754610014,20.9998
1318754670014,21.0009
1318754730014,21.0667
1318754790014,20.9987
1318754850014,21.0727
1318754910014,21.0323
1318754970014,20.9965
1318755030014,21.0220
1318755090014,21.0595
1318755150014,21.0171
1318755210014,21.0727
1318755270014,20.9971
1318755330014,20.9596
1318755390014,20.9680
1318755450014,20.9346
1318755510014,20.9533
1318755570014,20.9278
1318755630024,20.9451
1318755690024,20.9889
1318755750024,20.9293
1318755810024,20.9920
1318755870024,20.9482
1318755930024,20.9567
1318755990024,20.9624
1318756050024,20.9294
1318756110024,20.9255
1318756170024,20.9595
1318756230024,20.9910
1318756290024,20.9989
1318756350024,20.9393
1318756410024,20.9876
1318756470024,21.0101
1318756530024,20.9579
1318756590024,20.9832
1318756650024,20.9610
1318756710024,20.9328
1318756770024,20.9334
1318756830024,21.1043
1318756890024,21.0954
1318756950024,21.0612
1318757010024,21.0642
1318757070024,21.0835
1318757130024,21.0534
1318757190024,21.0987
1318757250024,21.1794
1318757310024,21.2275
1318757370024,21.1875
1318757430024,21.1231
1318757490024,21.1327
1318757550024,21.1606
1318757610024,21.1548
1318757670024,21.1828
1318757730024,21.1149
1318757790024,21.2197
1318757850024,21.2735
1318757910024,21.3365
1318757970024,21.3051
1318758030024,21.3612
1318758090024,21.3994
1318758150024,21.3371
1318758210024,21.3588
1318758270024,21.2626
1318758330024,21.3055
1318758390024,21.2006
1318758450024,21.2595
1318758510024,21.2281
1318758570024,21.2515
1318758630024,21.1619
1318758690024,21.1475
1318758750024,21.1369
1318758810024,21.1294
1318758870024,21.1135
1318758930024,21.2745
1318758990024,21.1716
1318759050024,21.1151
1318759110024,21.1319
1318759170024,21.1216
1318759230035,21.1237
1318759290035,21.0407
1318759350035,21.0684
1318759410035,21.0889
1318759470035,21.0481
1318759530035,21.0267
1318759590035,21.0472
1318759650035,21.1054
1318759710035,21.0162
1318759770035,21.0933
1318759830035,21.0618
1318759890035,21.0410
1318759950035,21.0889
1318760010035,21.1568
1318760070035,21.0955
1318760130035,21.1274
1318760190035,21.1625
1318760250035,21.1560
1318760310035,21.1498
1318760370035,21.1413
1318760430035,21.0326
1318760490035,21.0445
1318760550035,21.0471
1318760610035,20.9963
1318760670035,21.0395
1318760730035,21.0185
1318760790035,21.0347
1318760850035,20.9951
1318760910035,21.0187
1318760970035,20.9121
1318761030035,20.9364
1318761090035,20.9759
1318761150035,20.9483
1318761210035,21.0313
1318761270035,21.2009
1318761330035,21.3937
1318761390035,21.4478
1318761450035,21.4264
1318761510035,21.2845
1318761570035,21.1950
1318761630035,21.1628
1318761690035,21.1933
1318761750035,21.1936
1318761810035,21.1553
1318761870035,21.0674
1318761930035,21.1523
1318761990035,21.0920
1318762050035,21.0697
1318762110035,21.0829
1318762170035,21.0808
1318762230035,21.1154
1318762290035,21.0861
1318762350035,21.0655
1318762410035,20.9484
1318762470035,20.9857
1318762530035,21.0061
1318762590035,21.0304
1318762650035,21.0590
1318762710035,21.0956
1318762770035,21.0618
1318762830046,21.0229
1318762890046,21.0094
1318762950046,20.9689
1318763010046,20.9735
1318763070046,20.9334
1318763130046,20.9715
1318763190046,20.9080
1318763250046,20.9539
1318763310046,20.9626
1318763370046,20.9825
1318763430046,20.9843
1318763490046,20.9900
1318763550046,21.0006
1318763610046,21.0675
1318763670046,21.0947
1318763730046,21.1271
1318763790046,21.0953
1318763850046,21.0953
1318763910046,21.0913
1318763970046,21.0968
1318764030046,21.1067
1318764090046,21.0773
1318764150046,21.1166
1318764210046,21.0843
1318764270046,21.1225
1318764330046,21.1278
1318764390046,21.1619
1318764450046,21.0968
1318764510046,21.1379
1318764570046,21.1115
1318764630046,21.1276
1318764690046,21.0921
1318764750046,21.1350
1318764810046,21.1754
1318764870046,21.1755
1318764930046,21.1901
1318764990046,21.1754
1318765050046,21.2572
1318765110046,21.2762
1318765170046,21.2411
1318765230046,21.2398
1318765290046,21.3277
1318765350046,21.3621
1318765410046,21.3618
1318765470046,21.3256
1318765530046,21.3558
1318765590046,21.3697
1318765650046,21.3468
1318765710046,21.2808
1318765770046,21.3009
1318765830046,21.2543
1318765890046,21.3478
1318765950046,21.3344
1318766010046,21.3434
1318766070046,21.4117
1318766130046,21.3840
1318766190046,21.4002
1318766250046,21.3741
1318766310046,21.3572
1318766370046,21.3592
1318766430058,21.3792
1318766490058,21.3588
1318766550058,21.3688
1318766610058,21.3571
1318766670058,21.3337
1318766730058,21.3526
1318766790058,21.3456
1318766850058,21.3249
1318766910058,21.2932
1318766970058,21.4738
1318767030058,21.3527
1318767090058,21.3445
1318767150058,21.3388
1318767210058,21.4259
1318767270058,21.4684
1318767330058,21.3304
1318767390058,21.3744
1318767450058,21.5203
1318767510058,21.4411
1318767570058,21.4294
1318767630058,21.3820
1318767690058,21.3746
1318767750058,21.4301
1318767810058,21.4523
1318767870058,21.4654
1318767930058,21.3539
1318767990058,21.4214
1318768050058,21.3839
1318768110058,21.3567
1318768170058,21.3772
1318768230058,21.3169
1318768290058,21.2863
1318768350058,21.2607
1318768410058,21.2717
1318768470058,21.2710
1318768530058,21.2457
1318768590058,21.2394
1318768650058,21.2838
1318768710058,21.3155
1318768770058,21.3161
1318768830058,21.3139
1318768890058,21.3728
1318768950058,21.4013
1318769010058,21.3823
1318769070058,21.3197
1318769130058,21.3039
1318769190058,21.2506
1318769250058,21.2524
1318769310058,21.2218
1318769370058,21.2471
1318769430058,21.2464
1318769490058,21.2773
1318769550058,21.2987
1318769610058,21.2358
1318769670058,21.2285
1318769730058,21.1779
1318769790058,21.1793
1318769850058,21.2335
1318769910058,21.2015
1318769970058,21.2218
1318770030069,21.2058
1318770090069,21.1522
1318770150069,21.2064
1318770210069,21.1991
1318770270069,21.1425
1318770330069,21.1304
1318770390069,21.0689
1318770450069,21.1232
1318770510069,21.0928
1318770570069,21.1353
1318770630069,21.1152
1318770690069,21.0655
1318770750069,21.0344
1318770810069,21.1116
1318770870069,21.1060
1318770930069,21.0329
1318770990069,21.0495
1318771050069,21.0182
1318771110069,21.0561
1318771170069,21.0660
1318771230069,21.0271
1318771290069,21.1021
1318771350069,21.1456
1318771410069,21.2084
1318772550069,21.0106
1318772610069,21.0449
1318772670069,20.9988
1318772730069,21.0350
1318772790069,21.0120
1318772850069,20.9955
1318772910069,21.0382
1318772970069,21.1318
1318773030069,21.1126
1318773090069,21.1249
1318773150069,21.1681
1318773210069,21.6072
1318773270069,21.6314
1318773330069,21.5641
1318773390069,21.3613
1318773450069,21.2950
1318773510069,21.1212
1318773570069,21.1622
1318773630081,21.1379
1318773690081,21.0948
1318773750081,21.0943
1318773810081,21.1772
1318773870081,21.1859
1318773930081,21.1396
1318773990081,21.1878
1318774050081,21.2245
1318774110081,21.2623
1318774170081,21.2040
1318774230081,21.1245
1318774290081,21.1642
1318774350081,21.1052
1318774410081,21.1336
1318774470081,21.1350
1318774530081,21.1373
1318774590081,21.1397
1318774650081,21.1759
1318774710081,21.1966
1318774770081,21.2944
1318774830081,21.2646
1318774890081,21.2803
1318774950081,21.3575
1318775010081,21.2595
1318775070081,21.1944
1318775130081,21.1917
1318775190081,21.2786
1318775250081,21.2580
1318775310081,21.3093
1318775370081,21.3438
1318775430081,21.3034
1318775490081,21.2987
1318775550081,21.2727
1318775610081,21.2855
1318775670081,21.2672
1318775730081,21.1882
1318775790081,21.2903
1318775850081,21.2855
1318775910081,21.3524
1318775970081,21.3353
1318776030081,21.3041
1318776090081,21.2481
1318776150081,21.3050
1318776210081,21.3961
1318776270081,21.4676
1318776330081,21.5104
1318776390081,21.4388
1318776450081,21.5013
1318776510081,21.4697
1318776570081,21.3705
1318776630081,21.3608
1318776690081,21.3491
1318776750081,21.3927
1318776810081,21.4009
1318776870081,21.4671
1318776930081,21.4643
1318776990081,21.4567
1318777050081,21.4444
1318777110081,21.4374
1318777170081,21.4462
1318777230093,21.4827
1318777290093,21.4746
1318777350093,21.4922
1318777410093,21.5179
1318777470093,21.6618
1318777530093,21.8174
1318777590093,22.0540
1318777650093,22.1495
1318777710093,22.1640
1318777770093,22.1669
1318777830093,22.0097
1318777890093,21.9725
1318777950093,21.8103
1318778010093,21.8368
1318778070093,21.8362
1318778130093,21.7547
1318778190093,21.7135
1318778250093,21.6374
1318778310093,21.5920
1318778370093,21.5930
1318778430093,21.5880
1318778490093,21.5417
1318778550093,21.5909
1318778610093,21.5515
1318778670093,21.5328
1318778730093,21.5317
1318778790093,21.5452
1318778850093,21.5153
1318778910093,21.5724
1318778970093,21.5689
1318779030093,21.5798
1318779090093,21.6216
1318779150093,21.5278
1318779210093,21.5631
1318779270093,21.5676
1318779330093,21.5584
1318779390093,21.5015
1318779450093,21.5109
1318779510093,21.4104
1318779570093,21.3842
1318779630093,21.4209
1318779690093,21.4120
1318779750093,21.3695
1318779810093,21.4059
1318779870093,21.3484
1318779930093,21.4137
1318779990093,21.3757
1318780050093,21.4443
1318780110093,21.3699
1318780170093,21.4275
1318780230093,21.3738
1318780290093,21.4168
1318780350093,21.3201
1318780410093,21.3676
1318780470093,21.3798
1318780530093,21.4904
1318780590093,21.4988
1318780650093,21.5606
1318780710093,21.6243
1318780770093,21.5885
1318780830105,21.5124
1318780890105,21.5126
1318780950105,21.4263
1318781010105,21.4735
1318781070105,21.3629
1318781130105,21.3442
1318781190105,21.3347
1318781250105,21.3151
1318781310105,21.3137
1318781370105,21.3570
1318781430105,21.2814
1318781490105,21.3263
1318781550105,21.2924
1318781610105,21.2421
1318781670105,21.3287
1318781730105,21.2916
1318781790105,21.3033
1318781850105,21.2493
1318781910105,21.2819
1318781970105,21.1740
1318782030105,21.2197
1318782090105,21.2420
1318782150105,21.2781
1318782210105,21.2880
1318782270105,21.2483
1318782330105,21.1864
1318782390105,21.1641
1318782450105,21.1831
1318782510105,21.1823
1318782570105,21.1660
1318782630105,21.1606
1318782690105,21.1645
1318782750105,21.1817
1318782810105,21.1485
1318782870105,21.1595
1318782930105,21.1815
1318782990105,21.1569
1318783050105,21.1936
1318783110105,21.1594
1318783170105,21.1529
1318783230105,21.1573
1318783290105,21.1791
1318783350105,21.1717
1318783410105,21.1599
1318783470105,21.1787
1318783530105,21.1346
1318783590105,21.0742
1318783650105,21.1898
1318783710105,21.1667
1318783770105,21.1194
1318783830105,21.2307
1318783890105,21.1836
1318783950105,21.1711
1318784010105,21.1775
1318784070105,21.1644
1318784130105,21.1393
1318784190105,21.1400
1318784250105,21.1022
1318784310105,21.1292
1318784370105,21.1655
1318784430117,21.1352
1318784490117,21.1972
1318784550117,21.1941
1318784610117,21.2003
1318784670117,21.1292
1318784730117,21.1389
1318784790117,21.2298
1318784850117,21.1276
1318784910117,21.1790
1318784970117,21.1747
1318785030117,21.1688
1318785090117,21.1195
1318785150117,21.0581
1318785210117,21.0412
1318785270117,21.0978
1318785330117,21.0382
1318785390117,21.0618
1318785450117,21.1252
1318785510117,21.0554
1318785570117,21.1131
1318785630117,21.1024
1318785690117,21.0969
1318785750117,21.0563
1318785810117,21.0494
1318785870117,21.0231
1318785930117,21.0711
1318785990117,21.0760
1318786050117,21.1011
1318786110117,21.1114
1318786170117,21.1015
1318786230117,21.1536
1318786290117,21.1027
1318786350117,21.0488
1318786410117,21.1355
1318786470117,21.0700
1318786530117,21.0999
1318786590117,21.1055
1318786650117,21.1089
1318786710117,21.0712
1318786770117,21.1035
1318786830117,21.1102
1318786890117,21.1198
1318786950117,21.0752
1318787010117,21.0256
1318787070117,21.0719
1318787130117,21.0757
1318787190117,21.0496
1318787250117,21.0388
1318787310117,21.0787
1318787370117,21.0909
1318787430117,21.0648
1318787490117,21.0269
1318787550117,21.0544
1318787610117,21.0123
1318787670117,21.0304
1318787730117,21.0369
1318787790117,20.9461
1318787850117,21.0254
1318787910117,21.0694
1318787970117,21.0483
1318788030129,21.0748
1318788090129,21.0511
1318788150129,21.0838
1318788210129,21.0808
1318788270129,21.0305
1318788330129,21.0314
1318788390129,21.0534
1318788450129,21.0228
1318788510129,20.9934
1318788570129,20.9840
1318788630129,20.9036
1318788690129,20.9543
1318788750129,21.0170
1318788810129,20.9556
1318788870129,20.9561
1318788930129,20.9822
1318788990129,21.0033
1318789050129,21.0026
1318789110129,21.0263
1318789170129,21.0085
1318789230129,20.9762
1318789290129,21.0079
1318789350129,20.9908
1318789410129,20.9880
1318789470129,21.0363
1318789530129,21.0340
1318789590129,20.9703
1318789650129,21.0465